Theta_e
296 290 286 288 290 291 290 288 286 289 292 290 290 290 291 296 295 296 297 299 300 302 307 310 311 311 310 312 313 316 319 324 329 332 332 335 333 336 336 338 336 333 334 335
290 285 290 292 292 289 288 284 284 287 291 290 288 288 292 294 294 296 297 298 299 302 305 309 312 310 310 311 313 317 320 324 329 333 333 334 335 335 335 336 336 333 333 334
286 288 293 291 289 285 284 283 282 283 287 288 287 286 290 293 295 297 298 299 300 301 303 310 311 312 312 313 316 318 322 326 330 334 333 334 334 333 332 332 332 332 332 333
286 290 289 287 285 287 281 287 286 286 284 279 288 280 286 290 292 294 295 297 299 301 306 311 312 312 314 316 317 318 324 325 327 333 332 330 329 327 330 330 332 332 332 331
284 285 285 285 286 288 284 289 286 286 283 283 284 282 285 290 288 291 293 295 298 300 305 309 312 314 315 317 317 321 323 323 324 328 333 332 329 330 331 331 330 330 331 332
286 290 288 287 289 289 291 287 285 284 285 278 283 281 281 286 288 290 293 294 297 299 302 306 313 316 317 318 320 322 321 322 324 326 326 327 327 325 327 328 327 328 329 330
282 284 286 289 286 289 288 282 275 273 275 275 282 280 283 290 292 292 292 294 297 299 300 302 306 307 312 316 318 320 320 322 325 325 325 326 325 325 324 325 326 325 325 326
276 274 284 288 286 284 284 284 274 271 273 276 282 279 283 291 294 294 294 295 296 296 298 299 301 305 308 314 317 317 318 319 322 325 325 327 327 325 325 325 325 325 325 325
276 276 285 286 287 286 283 281 287 277 274 275 278 283 287 291 292 293 292 294 294 295 297 297 299 300 303 306 313 318 318 319 322 322 326 326 327 326 325 326 326 325 326 326
281 275 282 285 286 286 284 286 277 278 269 271 276 279 281 286 288 290 290 291 293 295 295 296 297 298 301 304 309 314 320 320 320 323 325 325 327 327 326 326 325 325 326 325
282 279 279 282 281 280 280 279 280 281 280 272 271 276 289 288 288 288 290 291 292 294 294 295 296 298 299 302 304 308 312 319 320 321 321 321 323 324 324 323 323 323 324 325
282 278 273 278 283 284 282 280 279 275 274 275 273 276 291 290 289 290 289 291 293 295 295 295 296 296 297 298 300 304 307 312 319 320 320 320 320 320 320 320 321 322 321 321
283 273 267 273 278 280 279 281 281 276 274 277 273 276 290 288 289 290 289 291 292 294 295 295 295 295 296 297 299 301 304 308 316 319 319 318 317 318 318 318 319 320 320 320
285 274 271 270 273 277 276 279 280 277 270 272 275 278 283 286 288 289 289 290 292 293 294 294 294 294 294 296 297 299 301 304 310 313 314 314 316 316 316 316 317 318 319 318
279 270 275 277 277 279 279 279 280 272 277 273 276 278 282 285 288 288 289 290 291 292 292 293 293 293 294 294 295 297 298 301 304 305 307 309 311 312 312 312 312 312 313 314
279 271 270 269 279 279 278 280 280 280 280 280 279 279 285 287 289 289 289 290 290 291 291 292 293 293 293 293 294 295 296 297 299 300 301 303 306 307 307 307 307 307 307 307
276 271 269 269 275 272 269 276 280 280 281 282 278 282 286 287 288 289 290 290 290 291 291 291 291 292 292 292 293 294 295 296 297 297 298 299 301 302 303 303 304 303 304 305
276 272 273 270 269 267 276 283 283 281 282 283 284 284 287 288 290 291 291 291 291 292 292 292 292 292 292 292 293 294 294 295 295 295 296 297 298 299 300 300 300 301 301 301
277 276 271 269 268 273 276 280 282 281 280 284 284 284 286 289 290 289 292 291 292 293 293 292 292 293 292 292 292 293 293 293 294 294 295 295 296 297 297 297 297 298 295 294
279 277 272 270 269 269 275 282 287 283 275 283 285 285 285 287 284 285 289 291 292 293 293 293 292 292 292 291 292 292 292 292 292 293 294 295 296 296 296 296 296 296 296 295
270 270 271 270 269 274 277 285 285 273 276 283 285 285 285 285 288 288 291 291 292 291 293 293 292 292 291 291 291 291 291 291 292 293 295 295 296 296 295 295 295 295 295 296
275 271 271 272 270 270 281 284 280 281 280 287 286 286 287 289 288 289 290 290 290 290 291 292 291 291 291 291 291 290 290 290 292 293 293 294 294 295 295 295 294 293 294 294
274 278 276 277 278 281 285 285 287 284 285 287 287 288 288 288 288 288 288 288 288 289 290 290 290 290 290 291 290 290 289 290 291 292 292 292 293 293 294 294 294 294 294 294
276 278 278 279 282 282 283 286 287 287 286 288 289 289 288 288 288 288 288 287 287 287 287 287 289 289 289 289 290 290 289 289 290 290 291 291 292 293 293 293 293 293 293 293
278 278 278 277 282 282 285 284 285 286 288 287 288 289 289 288 288 288 287 286 286 286 286 287 287 288 289 289 289 289 289 289 289 289 289 290 290 290 291 291 293 292 293 294
278 279 279 281 285 284 286 285 285 284 284 286 287 286 288 289 289 287 287 286 286 285 286 286 287 288 289 289 289 289 289 289 289 289 289 289 289 289 289 289 290 292 294 294
Wind_Speed
0 1 5 8 6 3 9 10 10 7 14 6 8 12 16 7 15 16 19 20 20 20 21 19 18 16 15 13 13 15 14 15 11 10 13 11 11 11 9 11 16 15 15 15
2 5 8 5 5 5 6 8 8 8 5 3 9 13 12 6 15 15 19 21 21 21 20 22 16 14 14 15 16 15 15 15 14 11 12 11 13 10 10 11 15 18 16 17
4 7 6 2 3 3 3 4 3 5 6 2 6 5 4 14 13 19 22 22 22 24 23 15 7 11 11 13 14 13 14 15 15 17 12 10 10 9 10 12 11 13 16 16
3 4 4 6 3 1 6 3 2 5 5 3 4 5 2 19 21 22 24 25 26 28 20 1 3 7 11 10 8 14 13 11 7 18 14 20 13 12 10 13 11 12 17 16
6 5 4 3 3 2 4 7 4 3 2 3 4 3 2 18 24 28 26 28 30 26 20 18 4 7 8 7 8 10 12 5 6 8 13 10 9 9 9 12 16 14 13 15
5 4 1 3 5 2 3 3 3 2 1 1 3 0 4 13 17 22 21 25 28 28 26 24 4 6 3 4 9 10 9 7 8 6 4 12 12 6 8 13 11 10 10 11
7 4 5 1 4 2 7 3 2 4 1 3 3 2 4 9 16 17 20 21 20 21 20 19 19 19 12 1 6 4 5 7 8 10 8 8 9 13 10 10 11 10 8 8
4 8 4 5 2 2 3 1 3 3 2 1 5 3 4 5 11 14 15 17 19 20 18 21 18 13 16 11 8 7 3 5 4 10 12 10 11 8 8 11 8 7 8 8
3 5 5 0 1 2 4 3 3 4 1 2 3 3 3 6 13 16 16 18 19 21 20 20 21 19 19 18 12 5 5 4 2 7 11 13 12 11 10 12 10 10 10 9
3 5 3 4 2 3 4 1 2 2 2 1 2 3 4 10 13 15 16 17 18 18 20 19 17 17 14 13 12 13 8 8 5 7 7 6 9 11 10 9 7 9 10 10
2 2 6 1 4 1 5 3 3 1 1 2 0 5 3 3 6 10 13 14 15 16 16 15 15 16 16 15 14 14 13 9 11 12 11 8 6 7 8 8 9 10 9 9
1 1 4 1 1 2 1 1 1 2 2 2 2 6 2 4 4 5 9 10 13 13 13 13 14 15 16 16 18 17 16 13 9 11 14 11 12 12 12 8 7 10 8 7
1 1 5 7 4 2 2 1 2 3 2 3 1 4 4 4 5 3 6 9 9 11 13 13 14 15 16 16 16 16 16 16 13 9 10 12 12 10 7 6 5 9 8 7
2 2 7 6 6 1 4 3 2 3 3 3 5 6 4 6 5 5 6 7 7 8 10 12 12 13 13 14 14 15 14 13 14 14 12 11 9 10 9 9 7 4 5 4
4 2 3 6 6 2 4 6 4 3 4 5 3 5 7 6 5 4 3 5 7 8 10 11 11 11 12 12 13 13 12 12 11 12 12 10 9 10 9 9 8 8 8 5
2 2 3 6 4 5 6 9 6 6 3 7 5 8 8 5 3 5 3 4 5 6 8 9 9 10 12 11 11 10 11 11 9 11 11 9 9 9 9 7 6 6 7 6
2 3 3 6 3 3 6 7 7 4 5 5 5 6 4 4 5 5 4 2 2 4 4 7 8 8 8 9 9 10 10 9 11 11 11 11 9 9 8 6 7 6 7 5
2 3 2 5 4 3 5 0 3 6 8 8 6 5 6 5 4 5 4 3 4 3 3 3 4 5 6 6 8 7 8 9 9 9 9 9 9 8 7 8 8 7 6 6
1 3 2 1 2 7 2 4 5 4 7 7 11 6 6 3 2 7 8 8 5 4 1 2 2 1 3 5 5 4 7 7 10 11 10 8 6 6 6 7 7 6 5 6
3 3 4 1 1 2 5 4 4 3 6 7 8 8 6 4 1 5 5 5 6 5 3 3 1 1 3 4 4 5 7 6 8 6 5 5 6 7 7 6 6 3 3 3
1 1 4 3 4 9 7 5 5 1 7 6 7 7 8 7 8 3 4 5 5 5 5 3 3 3 2 1 2 4 4 7 5 4 4 5 6 6 5 4 3 4 4 4
7 7 5 2 1 8 8 5 8 7 3 6 6 7 12 12 4 5 6 6 5 5 4 4 4 3 3 2 1 3 4 3 3 4 5 6 6 4 3 5 4 4 4 4
5 9 6 11 9 4 12 9 9 6 6 7 7 8 12 9 10 9 8 8 7 7 5 3 4 4 4 4 4 2 1 3 3 3 4 4 4 4 4 4 4 3 4 4
7 4 4 2 8 15 12 12 7 9 10 8 7 8 10 10 10 10 8 7 7 6 6 4 4 5 5 4 3 3 1 2 2 3 4 4 4 4 4 2 2 2 3 4
5 8 7 8 14 7 16 14 12 12 12 7 8 9 11 10 8 9 8 8 7 6 5 5 6 5 6 4 5 3 3 2 2 2 3 3 3 4 4 4 3 2 1 2
9 11 9 12 9 6 11 6 7 10 12 14 11 8 10 11 12 9 8 8 7 7 5 5 6 5 6 5 5 4 4 3 2 1 1 2 2 3 3 4 5 5 5 7
Wind_Direction
72 29 247 229 230 229 296 276 285 268 277 281 273 282 287 305 339 333 334 327 320 314 306 288 265 231 212 217 218 217 209 208 199 203 199 179 179 176 174 177 169 177 172 182
4 250 255 248 254 285 260 286 281 281 294 273 298 287 276 15 334 342 331 328 322 319 310 294 254 215 205 199 209 214 217 212 205 202 197 193 186 176 174 173 179 173 180 181
185 255 324 257 332 320 297 253 262 286 313 253 293 301 325 326 337 346 344 331 336 333 322 308 201 201 189 194 192 204 208 212 219 204 192 191 185 174 181 184 177 179 181 185
248 300 340 327 241 103 304 320 283 331 340 306 3 299 347 345 339 351 347 339 342 340 325 323 187 202 187 195 192 208 202 204 224 193 183 190 188 180 180 178 173 180 181 179
268 335 349 317 250 154 282 350 301 277 233 348 343 264 289 351 353 351 347 343 339 343 1 359 167 174 171 172 191 200 199 145 206 200 185 173 169 194 180 186 180 176 182 181
256 281 250 265 306 189 318 254 40 53 18 8 343 314 325 357 342 343 343 346 336 346 357 355 352 82 151 201 192 166 146 163 175 164 162 157 156 137 220 172 178 172 177 181
332 329 313 333 344 48 15 49 40 35 314 192 341 73 257 346 356 0 344 340 339 343 344 5 27 17 355 100 100 127 103 101 158 168 165 135 133 159 151 181 163 155 159 171
25 342 6 349 24 304 323 27 134 164 183 249 339 339 296 350 347 5 358 350 347 353 358 6 20 352 359 11 65 98 86 78 104 180 170 148 157 163 140 164 158 162 180 169
5 280 311 64 309 52 328 33 334 108 204 80 293 290 322 354 351 358 4 3 355 354 3 6 2 2 4 359 5 78 74 41 355 197 168 169 151 155 165 165 172 173 177 174
313 306 262 299 65 20 85 325 52 7 52 340 302 264 259 337 342 348 358 359 356 359 2 3 0 0 357 358 4 28 48 45 1 89 115 125 173 154 162 158 163 171 168 161
350 123 294 349 35 285 350 19 17 332 2 170 243 270 213 310 334 341 343 355 356 1 358 358 357 2 5 11 13 24 22 32 49 65 78 83 94 121 130 141 145 134 142 150
333 148 277 3 101 184 122 78 98 120 270 92 148 274 310 312 326 357 334 351 351 356 353 359 2 3 13 12 10 14 11 17 47 58 60 67 75 70 71 56 116 115 116 122
134 21 353 347 354 6 108 211 137 117 17 238 145 259 282 295 333 348 345 346 345 350 358 358 8 13 12 12 14 14 19 14 23 45 54 65 66 72 68 99 57 86 102 110
99 112 157 195 225 308 308 245 169 130 117 189 231 294 252 286 313 334 344 337 336 349 357 359 11 13 12 12 9 17 24 23 34 44 42 43 63 67 59 50 47 88 100 120
104 215 218 238 229 250 256 273 266 191 196 167 242 231 271 267 278 290 305 326 344 353 1 6 4 7 14 12 14 14 16 22 34 48 44 36 49 60 57 51 40 45 57 57
22 266 98 292 197 215 273 273 252 241 237 269 257 267 244 261 286 311 326 349 348 345 352 354 3 8 13 10 5 4 16 18 24 47 46 43 53 53 46 48 60 60 63 46
50 116 55 271 19 357 331 231 191 237 198 177 210 239 184 266 271 270 279 295 315 339 348 356 2 2 2 3 2 11 8 9 31 32 33 29 35 50 49 57 58 47 48 53
147 97 132 267 360 15 231 103 173 218 259 228 251 220 231 227 236 249 242 262 293 315 346 4 0 360 4 356 6 1 13 26 32 35 31 26 28 37 33 36 40 38 30 32
182 118 15 51 220 288 148 192 183 190 281 214 230 227 202 209 311 278 224 193 202 214 229 302 321 7 1 3 357 29 34 28 27 20 19 18 26 43 41 44 35 33 35 26
99 83 118 64 45 233 221 185 172 142 287 200 188 225 204 140 268 254 204 196 230 248 210 183 162 93 30 359 8 35 29 38 42 26 12 11 25 42 44 35 37 33 58 42
69 23 173 191 250 281 231 170 149 130 236 175 190 198 164 191 203 232 160 196 197 200 201 174 154 147 159 315 52 50 28 33 352 2 19 29 31 40 43 53 47 40 39 34
189 159 202 118 161 283 160 97 177 210 189 179 195 199 199 216 200 214 214 216 227 231 222 198 189 185 173 157 106 74 54 341 345 18 36 30 24 28 31 42 36 34 28 20
257 198 187 190 218 229 194 207 209 176 187 200 187 195 202 209 219 205 214 219 219 216 222 220 219 229 213 191 163 141 352 359 4 60 50 40 36 36 26 30 27 27 22 16
237 159 225 17 249 227 221 233 228 202 217 199 210 199 179 199 206 214 211 207 206 208 213 219 221 238 257 229 202 203 199 43 17 30 30 23 31 32 35 48 54 45 30 9
186 141 193 256 275 272 264 230 232 230 232 226 219 207 205 200 206 201 205 205 204 205 210 202 210 224 241 234 230 209 184 145 73 49 12 6 13 13 1 3 355 1 3 0
183 192 191 242 228 208 256 214 200 213 218 221 209 218 217 198 215 186 200 195 190 202 205 215 223 219 230 215 220 208 197 183 159 116 20 356 352 352 350 345 336 304 290 322